Regional Weather Roundup
Issued by NWS

Home | Current Version | Previous Version | Text Only | Print | Product List | Glossary Off
Versions: 1 2 3 4 5 6 7 8 9 10 11 12 13 14 15 16 17 18 19 20 21 22 23 24 25 26 27 28 29 30 31 32 33 34 35 36 37 38 39 40 41 42 43 44 45 46 47 48 49 50

000
ASUS43 KLOT 062200
RWRIL

ILLINOIS REGIONAL WEATHER ROUNDUP
NATIONAL WEATHER SERVICE CHICAGO/ROMEOVILLE IL
500 PM CDT MON JUL 06 2015

NOTE: "FAIR" INDICATES FEW OR NO CLOUDS BELOW 12,000 FEET WITH NO
SIGNIFICANT WEATHER AND/OR OBSTRUCTIONS TO VISIBILITY.

* THESE STATIONS ARE NOT UNDER NWS QUALITY CONTROL. THEY ALSO MAY NOT
  REPORT WEATHER SUCH AS PRECIPITATION OR FOG.

ILZ001-002-007-009-015-016-024-062300-
NORTHWEST ILLINOIS

CITY           SKY/WX    TMP DP  RH WIND       PRES   REMARKS
MOLINE         TSTM      72  69  90 SW6       29.87R FOG
STERLING*      CLOUDY    79  75  89 N3        29.85F HX  82
$$

ILZ003-004-008-010-011-017-018-062300-
NORTH CENTRAL ILLINOIS

CITY           SKY/WX    TMP DP  RH WIND       PRES   REMARKS
ROCKFORD       LGT RAIN  78  73  84 S14       29.86F HX  81
$$

ILZ005-006-012>014-019>023-062300-
NORTHEAST ILLINOIS

CITY           SKY/WX    TMP DP  RH WIND       PRES   REMARKS
CHICAGO-OHARE  CLOUDY    79  69  71 S8        29.86F HX  81
CHICAGO-MIDWAY CLOUDY    81  67  62 SE12      29.88F HX  83
AURORA         PTSUNNY   84  70  62 S13       29.87F HX  88
LANSING*       CLOUDY    74  67  80 SE5       29.91S
WAUKEGAN       CLOUDY    74  70  87 S7        29.85F
DUPAGE AIRPORT PTSUNNY   83  73  72 S15       29.86F HX  89
WHEELING       CLOUDY    79  71  76 S13       29.86F HX  82
NORTHERLY ISL    N/A     74  66  76 SE10        N/A
$$

LMZ740>746-062300-
SOUTHERN LAKE MICHIGAN

STATION/POSITION SKY/WX   TEMP    WIND        PRES    VSBY  WAVE
                          AIR SEA DIR/SP/G                  HT/PER
                          (F)     (DEG/KT/KT) (MB)    (MI)  (FT/S)
HARRISON CRIB              73     150/  7/ 10   N/A
BURNHAM HARBOR             77     230/  5/ 17   N/A
CALUMET HARBOR             80     310/  3/  5   N/A
BURNS HARBOR               84     200/ 14/ 20 1013.5F
MICHIGAN CITY              83     170/ 14/ 18   N/A
MICHIGAN CITY 6N           77 68  210/ 10/ 12   N/A           1/ 2
ST. JOSEPH                 73 66  240/  6/  8   N/A           1/ 2
$$

ILZ025>027-034>036-040-047-049-050-058-095>099-062300-
WEST-CENTRAL ILLINOIS

CITY           SKY/WX    TMP DP  RH WIND       PRES   REMARKS
QUINCY         PTSUNNY   87  74  64 S10G21    29.84F HX  95
MACOMB*        MOSUNNY   86  75  68 S14       29.86F HX  94
$$

ILZ028>032-037-038-041>044-048-051>054-059>061-062300-
CENTRAL ILLINOIS

CITY           SKY/WX    TMP DP  RH WIND       PRES   REMARKS
DECATUR        PTSUNNY   86  75  69 S12       29.91F HX  95
PEORIA         PTSUNNY   88  75  65 SW15      29.86F HX  97
SPRINGFIELD    CLOUDY    88  76  67 S15       29.89F HX  99
TAYLORVILLE    NOT AVBL
$$

ILZ033-039-045-046-055>057-062-063-062300-
EAST-CENTRAL ILLINOIS

CITY           SKY/WX    TMP DP  RH WIND       PRES   REMARKS
CHAMPAIGN      PTSUNNY   85  74  69 S12       29.93F HX  92
RANTOUL*       CLOUDY    86  75  69 S13       29.93F HX  95
MATTOON        PTSUNNY   84  74  71 S13       29.94F HX  91
$$

ILZ079-100>102-062300-
SOUTHWEST ILLINOIS

CITY           SKY/WX    TMP DP  RH WIND       PRES   REMARKS
ALTON          MOSUNNY   79 N/A N/A SE9       29.91F
CAHOKIA*       CLOUDY    85  75  72 S9        29.92F THUNDER HX  93
SPARTA*        CLOUDY    85  75  72 S10       29.96F HX  92
$$

ILZ064>066-069>071-074>076-080>082-084>086-088>090-092>094-062300-
SOUTH-CENTRAL ILLINOIS

CITY           SKY/WX    TMP DP  RH WIND       PRES   REMARKS
CARBONDALE     MOSUNNY   84  73  69 S12       29.97F HX  90
MT. VERNON     PTSUNNY   86  73  66 S14       29.97F HX  93
SALEM*         PTSUNNY   85  74  67 S7        29.96S HX  93
$$

ILZ067-068-072-073-078-083-087-091-062300-
SOUTHEAST ILLINOIS

CITY           SKY/WX    TMP DP  RH WIND       PRES   REMARKS
LAWRENCEVILLE  MOSUNNY   85  74  69 S10       29.97F HX  92
HARRISBURG*    MOSUNNY   85  74  70 SW8       29.99F HX  93
$$

ABBREVIATIONS USED IN REMARKS
   TC - TEMPERATURE IN CELSIUS
  WCI - WIND CHILL INDEX
   HX - HEAT INDEX
  VSB - VISIBILITY
$$



USA.gov is the U.S. government's official web portal to all federal, state and local government web resources and services.